Burlington, CO

2:53 AM MDT on September 23, 2017 (GMT -0600)
Kit Carson County

Weather History for KITR - August, 2013

Change the Weather History Date:

Monday, August 5, 2013

  Actual Average Record
Temperature  
Mean Temperature 80 °F 74 °F  
Max Temperature 93 °F 88 °F 103 °F (1960)
Min Temperature 66 °F 61 °F 39 °F (1972)
Cooling Degree Days 14    
Growing Degree Days 28 (Base 50)    
Moisture  
Dew Point 62 °F    
Average Humidity 63    
Maximum Humidity 93    
Minimum Humidity 27    
Precipitation  
Precipitation 0.00 in 0.08 in 1.82 in (1967)
Month to date precipitation 0.10 0.41  
Year to date precipitation 8.63 12.15  
Sea Level Pressure  
Sea Level Pressure 29.91 in    
Wind  
Wind Speed 10 mph (SSE)    
Max Wind Speed 21 mph    
Max Gust Speed 29 mph    
Visibility 9 miles    
Events Thunderstorm    
T = Trace of Precipitation, MM = Missing Value Source: NWS Daily Summary

Daily Weather History Graph

Daily Weather History Graph

Search for Another Location

Airport or City:

Trip Planner

Search our weather history database for the weather conditions in past years. The results will help you decide how hot, cold, wet, or windy it might be!

Date:

Astronomy

Aug. 05, 2013 Rise Set
Actual Time 5:53 AM MDT 7:56 PM MDT
Civil Twilight 5:23 AM MDT 8:25 PM MDT
Nautical Twilight 4:47 AM MDT 9:01 PM MDT
Astronomical Twilight 4:08 AM MDT 9:40 PM MDT
Moon 4:50 AM MDT (8/5) 6:58 PM MDT (8/5)
Length of Visible Light 15h 02m
Length of Day
14h 03m
Waning Crescent, 1% of the Moon is Illuminated
Aug 5
Waning Crescent
Aug 6
New
Aug 14
First Quarter
Aug 20
Full
Aug 28
Last Quarter

Hourly Weather History & Observations

Time (MDT) Temp. Heat Index Dew Point Humidity Pressure Visibility Wind Dir Wind Speed Gust Speed Precip Events Conditions
12:53 AM 71.1 °F - 64.9 °F 81% 29.92 in 10.0 mi South 10.4 mph - N/A   Clear
1:53 AM 72.0 °F - 66.0 °F 81% 29.90 in 10.0 mi SSW 11.5 mph - N/A   Clear
2:53 AM 70.0 °F - 66.0 °F 87% 29.88 in 10.0 mi South 6.9 mph - N/A   Clear
3:53 AM 70.0 °F - 68.0 °F 93% 29.87 in 6.0 mi South 11.5 mph - N/A   Scattered Clouds
4:05 AM 71.6 °F - 68.0 °F 88% 30.05 in 6.0 mi South 15.0 mph 20.7 mph N/A   Mostly Cloudy
4:53 AM 72.0 °F - 68.0 °F 87% 29.86 in 8.0 mi South 12.7 mph 21.9 mph N/A   Mostly Cloudy
5:46 AM 71.6 °F - 68.0 °F 88% 30.05 in 8.0 mi SSW 10.4 mph - N/A   Scattered Clouds
5:53 AM 72.0 °F - 68.0 °F 87% 29.86 in 8.0 mi South 9.2 mph - N/A   Partly Cloudy
6:21 AM 71.6 °F - 68.0 °F 88% 30.05 in 5.0 mi SSW 8.1 mph - N/A   Mostly Cloudy
6:53 AM 71.1 °F - 68.0 °F 90% 29.87 in 5.0 mi SSW 10.4 mph - N/A   Mostly Cloudy
7:28 AM 73.4 °F - 68.0 °F 83% 30.06 in 7.0 mi SW 6.9 mph - N/A   Scattered Clouds
7:53 AM 75.0 °F - 68.0 °F 79% 29.88 in 9.0 mi SW 8.1 mph - N/A   Clear
8:53 AM 81.0 °F 83.0 °F 66.0 °F 60% 29.88 in 10.0 mi WSW 5.8 mph - N/A   Clear
9:53 AM 87.1 °F 87.5 °F 62.1 °F 43% 29.85 in 10.0 mi SSW 9.2 mph - N/A   Clear
10:53 AM 91.0 °F 88.9 °F 55.0 °F 29% 29.83 in 10.0 mi SSE 6.9 mph - N/A   Clear
11:53 AM 89.1 °F 87.3 °F 55.9 °F 32% 29.84 in 10.0 mi West 4.6 mph - N/A   Scattered Clouds
12:53 PM 91.0 °F 88.5 °F 53.1 °F 27% 29.81 in 10.0 mi Calm Calm - N/A   Partly Cloudy
1:10 PM 89.6 °F 87.7 °F 55.4 °F 31% 30.00 in 10.0 mi NNW 10.4 mph - N/A Thunderstorm Mostly Cloudy
1:31 PM 87.8 °F 86.5 °F 57.2 °F 35% 30.00 in 10.0 mi Calm Calm - N/A Thunderstorm Thunderstorm
1:51 PM 84.2 °F 84.4 °F 60.8 °F 45% 29.99 in 10.0 mi ESE 8.1 mph - N/A Thunderstorm Scattered Clouds
1:52 PM 84.9 °F 85.0 °F 61.0 °F 44% 29.80 in 10.0 mi ESE 8.1 mph - N/A Thunderstorm Scattered Clouds
2:18 PM 78.8 °F - 62.6 °F 57% 30.01 in 10.0 mi ESE 12.7 mph - N/A   Partly Cloudy
2:34 PM 75.2 °F - 60.8 °F 61% 30.01 in 10.0 mi ESE 19.6 mph 26.5 mph N/A Thunderstorm Scattered Clouds
2:49 PM 78.8 °F - 62.6 °F 57% 30.00 in 10.0 mi East 19.6 mph 26.5 mph N/A   Mostly Cloudy
2:53 PM 79.0 °F - 62.1 °F 56% 29.83 in 10.0 mi ESE 17.3 mph 25.3 mph N/A   Mostly Cloudy
3:16 PM 77.0 °F - 62.6 °F 61% 30.00 in 10.0 mi ESE 13.8 mph - N/A Thunderstorm Scattered Clouds
3:53 PM 79.0 °F - 63.0 °F 58% 29.83 in 10.0 mi SE 17.3 mph 23.0 mph N/A Thunderstorm Mostly Cloudy
4:53 PM 81.0 °F 81.3 °F 59.0 °F 47% 29.82 in 10.0 mi SSE 15.0 mph 25.3 mph N/A   Clear
5:27 PM 82.4 °F 82.5 °F 59.0 °F 45% 29.98 in 10.0 mi South 16.1 mph - N/A Thunderstorm Clear
5:43 PM 80.6 °F 81.5 °F 60.8 °F 51% 30.00 in 10.0 mi SE 18.4 mph 28.8 mph N/A   Clear
5:53 PM 78.1 °F - 60.1 °F 54% 29.83 in 10.0 mi SE 20.7 mph 28.8 mph N/A   Clear
6:00 PM 75.2 °F - 59.0 °F 57% 29.99 in 10.0 mi ESE 16.1 mph 25.3 mph N/A   Clear
6:53 PM 75.9 °F - 59.0 °F 56% 29.82 in 10.0 mi SSE 9.2 mph - N/A   Clear
7:53 PM 71.1 °F - 60.1 °F 68% 29.81 in 10.0 mi SSW 5.8 mph - N/A   Clear
8:53 PM 68.0 °F - 59.0 °F 73% 29.82 in 10.0 mi SW 4.6 mph - N/A   Clear
9:53 PM 66.9 °F - 59.0 °F 76% 29.88 in 10.0 mi NE 8.1 mph - N/A   Mostly Cloudy
10:53 PM 68.0 °F - 59.0 °F 73% 29.89 in 10.0 mi ENE 12.7 mph 20.7 mph N/A   Clear
11:53 PM 66.9 °F - 59.0 °F 76% 29.87 in 10.0 mi SE 6.9 mph - N/A   Clear